| time (UTC) | temp F | wind direction | speed MPH | gust MPH | rain 1hr in | rain 24hr in | rain mn in | humidity % | barometer mb |
| 20260509224018 | 79 | 49 | 0.0 | 2.0 | 0.00 | 0.02 | 0.00 | 77 | 1010.2 |
| 20260509223517 | 79 | 49 | 1.0 | 3.0 | 0.00 | 0.02 | 0.00 | 77 | 1010.2 |
| 20260509223017 | 79 | 49 | 1.0 | 3.0 | 0.00 | 0.02 | 0.00 | 77 | 1010.1 |
| 20260509221018 | 79 | 69 | 0.0 | 2.0 | 0.00 | 0.02 | 0.00 | 77 | 1009.9 |
| 20260509220518 | 79 | 67 | 1.0 | 3.0 | 0.00 | 0.02 | 0.00 | 77 | 1009.9 |
| 20260509220017 | 79 | 15 | 3.0 | 5.0 | 0.00 | 0.02 | 0.00 | 76 | 1009.9 |
| 20260509215518 | 79 | 24 | 2.0 | 3.0 | 0.00 | 0.02 | 0.00 | 77 | 1009.9 |
| 20260509215017 | 78 | 10 | 1.0 | 5.0 | 0.00 | 0.02 | 0.00 | 76 | 1010.0 |
| 20260509214517 | 79 | 30 | 1.0 | 5.0 | 0.00 | 0.02 | 0.00 | 76 | 1010.0 |
| 20260509214018 | 78 | 32 | 0.0 | 3.0 | 0.00 | 0.02 | 0.00 | 75 | 1010.0 |
| 20260509213517 | 79 | 42 | 0.0 | 3.0 | 0.00 | 0.02 | 0.00 | 76 | 1010.1 |
| 20260509213017 | 79 | 42 | 1.0 | 2.0 | 0.00 | 0.02 | 0.00 | 78 | 1010.1 |
| 20260509212517 | 79 | 42 | 1.0 | 3.0 | 0.00 | 0.02 | 0.00 | 79 | 1010.2 |
| 20260509212018 | 79 | 48 | 1.0 | 2.0 | 0.00 | 0.02 | 0.00 | 78 | 1010.2 |
| 20260509211518 | 79 | 49 | 1.0 | 2.0 | 0.00 | 0.02 | 0.00 | 79 | 1010.4 |
| 20260509211017 | 78 | 48 | 2.0 | 3.0 | 0.00 | 0.02 | 0.00 | 78 | 1010.4 |
| 20260509210517 | 78 | 36 | 1.0 | 3.0 | 0.00 | 0.02 | 0.00 | 79 | 1010.4 |
| 20260509210018 | 78 | 38 | 1.0 | 3.0 | 0.00 | 0.02 | 0.00 | 78 | 1010.4 |
| 20260509205518 | 78 | 40 | 1.0 | 2.0 | 0.00 | 0.02 | 0.00 | 79 | 1010.4 |
| 20260509204017 | 77 | 26 | 0.0 | 2.0 | 0.00 | 0.02 | 0.00 | 78 | 1010.6 |
| 20260509203518 | 77 | 26 | 1.0 | 2.0 | 0.00 | 0.02 | 0.00 | 80 | 1010.6 |
| 20260509203017 | 77 | 21 | 0.0 | 5.0 | 0.00 | 0.02 | 0.00 | 79 | 1010.6 |
| 20260509202517 | 77 | 42 | 1.0 | 3.0 | 0.00 | 0.02 | 0.00 | 81 | 1010.6 |
| 20260509202017 | 77 | 49 | 1.0 | 2.0 | 0.00 | 0.02 | 0.00 | 83 | 1010.7 |
| 20260509201517 | 76 | 49 | 1.0 | 2.0 | 0.00 | 0.02 | 0.00 | 83 | 1010.7 |
| 20260509201017 | 76 | 49 | 0.0 | 0.0 | 0.00 | 0.02 | 0.00 | 82 | 1010.8 |
| 20260509200018 | 76 | 50 | 1.0 | 3.0 | 0.00 | 0.02 | 0.00 | 83 | 1010.9 |
| 20260509195518 | 76 | 34 | 2.0 | 3.0 | 0.00 | 0.02 | 0.00 | 83 | 1011.0 |
| 20260509195018 | 75 | 84 | 1.0 | 3.0 | 0.00 | 0.02 | 0.00 | 84 | 1011.0 |
| 20260509194518 | 75 | 82 | 1.0 | 3.0 | 0.00 | 0.02 | 0.00 | 83 | 1011.1 |
| 20260509194018 | 75 | 23 | 2.0 | 3.0 | 0.00 | 0.02 | 0.00 | 84 | 1011.0 |
| 20260509193518 | 75 | 337 | 0.0 | 1.0 | 0.00 | 0.02 | 0.00 | 85 | 1011.1 |
| 20260509192518 | 73 | 279 | 0.0 | 1.0 | 0.00 | 0.02 | 0.00 | 87 | 1011.1 |
| 20260509192018 | 73 | 279 | 1.0 | 2.0 | 0.00 | 0.02 | 0.00 | 87 | 1011.1 |
| 20260509190518 | 73 | 271 | 0.0 | 2.0 | 0.00 | 0.02 | 0.00 | 87 | 1011.4 |
| 20260509190018 | 73 | 271 | 0.0 | 1.0 | 0.00 | 0.02 | 0.00 | 87 | 1011.5 |
| 20260509185517 | 73 | 271 | 0.0 | 1.0 | 0.00 | 0.02 | 0.00 | 87 | 1011.5 |
| 20260509185018 | 73 | 270 | 0.0 | 0.0 | 0.00 | 0.02 | 0.00 | 87 | 1011.5 |
| 20260509184517 | 73 | 270 | 0.0 | 0.0 | 0.00 | 0.02 | 0.00 | 87 | 1011.5 |
| 20260509184018 | 73 | 270 | 0.0 | 3.0 | 0.00 | 0.02 | 0.00 | 87 | 1011.5 |
| 20260509183517 | 73 | 270 | 0.0 | 0.0 | 0.00 | 0.02 | 0.00 | 87 | 1011.6 |
| 20260509183018 | 73 | 270 | 0.0 | 1.0 | 0.00 | 0.02 | 0.00 | 87 | 1011.5 |
| 20260509182517 | 73 | 270 | 0.0 | 1.0 | 0.00 | 0.02 | 0.00 | 87 | 1011.5 |
| 20260509182018 | 73 | 270 | 0.0 | 1.0 | 0.00 | 0.02 | 0.00 | 87 | 1011.6 |
| 20260509181517 | 73 | 270 | 0.0 | 2.0 | 0.00 | 0.02 | 0.00 | 87 | 1011.7 |
| 20260509181018 | 73 | 8 | 0.0 | 2.0 | 0.00 | 0.02 | 0.00 | 87 | 1011.6 |
| 20260509180517 | 73 | 14 | 2.0 | 3.0 | 0.00 | 0.02 | 0.00 | 87 | 1011.5 |
| 20260509180018 | 73 | 14 | 0.0 | 0.0 | 0.00 | 0.02 | 0.00 | 88 | 1011.6 |
| 20260509175518 | 73 | 14 | 0.0 | 0.0 | 0.00 | 0.02 | 0.00 | 88 | 1011.7 |
| 20260509175017 | 72 | 14 | 0.0 | 0.0 | 0.00 | 0.02 | 0.00 | 89 | 1011.8 |
| 20260509174518 | 72 | 5 | 0.0 | 0.0 | 0.00 | 0.02 | 0.00 | 89 | 1012.0 |
| 20260509174018 | 72 | 5 | 0.0 | 0.0 | 0.00 | 0.02 | 0.00 | 89 | 1012.0 |
| 20260509173518 | 72 | 5 | 0.0 | 0.0 | 0.00 | 0.02 | 0.00 | 89 | 1012.1 |
| 20260509173018 | 72 | 324 | 0.0 | 0.0 | 0.00 | 0.02 | 0.00 | 89 | 1012.1 |
| 20260509172518 | 72 | 302 | 0.0 | 1.0 | 0.00 | 0.02 | 0.00 | 90 | 1012.0 |
| 20260509172018 | 71 | 302 | 1.0 | 3.0 | 0.00 | 0.02 | 0.00 | 90 | 1012.1 |
| 20260509171517 | 71 | 334 | 1.0 | 1.0 | 0.00 | 0.02 | 0.00 | 90 | 1012.2 |
| 20260509171017 | 70 | 333 | 0.0 | 1.0 | 0.00 | 0.02 | 0.00 | 90 | 1012.2 |
| 20260509170517 | 70 | 324 | 0.0 | 2.0 | 0.00 | 0.02 | 0.00 | 90 | 1012.3 |
| 20260509170017 | 70 | 313 | 0.0 | 0.0 | 0.00 | 0.02 | 0.00 | 90 | 1012.3 |
| 20260509165517 | 70 | 313 | 0.0 | 0.0 | 0.00 | 0.02 | 0.00 | 90 | 1012.2 |
| 20260509165017 | 70 | 313 | 0.0 | 0.0 | 0.00 | 0.02 | 0.00 | 90 | 1012.3 |
| 20260509164517 | 70 | 312 | 0.0 | 0.0 | 0.00 | 0.02 | 0.00 | 90 | 1012.2 |
| 20260509164018 | 70 | 313 | 0.0 | 0.0 | 0.00 | 0.02 | 0.00 | 90 | 1012.3 |
| 20260509163518 | 70 | 312 | 0.0 | 0.0 | 0.00 | 0.02 | 0.00 | 90 | 1012.3 |
| 20260509163017 | 70 | 313 | 0.0 | 0.0 | 0.00 | 0.02 | 0.00 | 90 | 1012.2 |
| 20260509162517 | 70 | 313 | 0.0 | 0.0 | 0.00 | 0.02 | 0.00 | 90 | 1012.1 |
| 20260509162017 | 69 | 313 | 0.0 | 0.0 | 0.00 | 0.02 | 0.00 | 90 | 1012.1 |
| 20260509161017 | 69 | 312 | 0.0 | 0.0 | 0.00 | 0.02 | 0.00 | 90 | 1012.0 |
| 20260509160518 | 69 | 312 | 0.0 | 0.0 | 0.00 | 0.02 | 0.00 | 90 | 1011.9 |
| 20260509160017 | 69 | 312 | 0.0 | 0.0 | 0.00 | 0.02 | 0.00 | 90 | 1011.9 |
| 20260509155517 | 69 | 312 | 0.0 | 0.0 | 0.00 | 0.02 | 0.00 | 90 | 1011.9 |
| 20260509155018 | 69 | 312 | 0.0 | 0.0 | 0.00 | 0.02 | 0.00 | 90 | 1011.8 |
| 20260509154517 | 69 | 312 | 0.0 | 0.0 | 0.00 | 0.02 | 0.00 | 90 | 1011.8 |
| 20260509154017 | 69 | 312 | 0.0 | 0.0 | 0.00 | 0.02 | 0.00 | 90 | 1011.7 |
| 20260509153018 | 68 | 312 | 0.0 | 0.0 | 0.00 | 0.02 | 0.00 | 90 | 1011.5 |
| 20260509152517 | 68 | 312 | 0.0 | 0.0 | 0.00 | 0.02 | 0.00 | 90 | 1011.5 |
| 20260509152018 | 68 | 312 | 0.0 | 0.0 | 0.00 | 0.02 | 0.00 | 90 | 1011.6 |
| 20260509151518 | 68 | 312 | 0.0 | 0.0 | 0.00 | 0.02 | 0.00 | 90 | 1011.5 |
| 20260509151017 | 68 | 311 | 0.0 | 0.0 | 0.00 | 0.02 | 0.00 | 90 | 1011.4 |
| 20260509150517 | 68 | 312 | 0.0 | 0.0 | 0.00 | 0.02 | 0.00 | 90 | 1011.5 |
| 20260509150017 | 68 | 311 | 0.0 | 0.0 | 0.00 | 0.02 | 0.00 | 90 | 1011.6 |
| 20260509145518 | 68 | 311 | 0.0 | 0.0 | 0.00 | 0.02 | 0.00 | 90 | 1011.7 |
| 20260509145017 | 68 | 312 | 0.0 | 0.0 | 0.00 | 0.02 | 0.00 | 90 | 1011.8 |
| 20260509144517 | 67 | 311 | 0.0 | 0.0 | 0.00 | 0.02 | 0.00 | 90 | 1011.9 |
| 20260509144017 | 67 | 311 | 0.0 | 1.0 | 0.00 | 0.02 | 0.00 | 90 | 1011.9 |
| 20260509143018 | 67 | 311 | 0.0 | 0.0 | 0.00 | 0.02 | 0.00 | 90 | 1012.1 |
| 20260509142517 | 67 | 311 | 0.0 | 2.0 | 0.00 | 0.02 | 0.00 | 90 | 1012.0 |
| 20260509142018 | 67 | 312 | 1.0 | 2.0 | 0.00 | 0.02 | 0.00 | 90 | 1012.0 |
| 20260509141517 | 67 | 312 | 0.0 | 1.0 | 0.00 | 0.02 | 0.00 | 90 | 1012.0 |
| 20260509141018 | 67 | 312 | 1.0 | 2.0 | 0.00 | 0.02 | 0.00 | 90 | 1012.0 |
| 20260509140518 | 67 | 312 | 0.0 | 2.0 | 0.00 | 0.02 | 0.00 | 90 | 1012.1 |
| 20260509060534 | 70 | 63 | 0.0 | 2.0 | 0.00 | 0.00 | 0.00 | 85 | 1012.9 |
| 20260509055533 | 69 | 64 | 0.0 | 0.0 | 0.00 | 0.00 | 0.00 | 84 | 1011.6 |
| 20260509055033 | 69 | 64 | 0.0 | 0.0 | 0.00 | 0.00 | 0.00 | 84 | 1011.6 |
| 20260509054533 | 69 | 64 | 0.0 | 0.0 | 0.00 | 0.00 | 0.00 | 84 | 1011.8 |
| 20260509053533 | 69 | 64 | 1.0 | 2.0 | 0.00 | 0.00 | 0.00 | 84 | 1012.1 |
| 20260509053033 | 69 | 64 | 0.0 | 1.0 | 0.00 | 0.00 | 0.00 | 84 | 1012.2 |
| 20260509052532 | 69 | 64 | 0.0 | 0.0 | 0.00 | 0.00 | 0.00 | 84 | 1012.0 |
| 20260509051533 | 69 | 57 | 0.0 | 0.0 | 0.00 | 0.00 | 0.00 | 84 | 1011.5 |
| 20260509051034 | 69 | 57 | 0.0 | 3.0 | 0.00 | 0.00 | 0.00 | 84 | 1011.6 |
| 20260509050534 | 70 | 297 | 0.0 | 3.0 | 0.00 | 0.00 | 0.00 | 84 | 1011.6 |
| 20260509045534 | 70 | 251 | 1.0 | 6.0 | 0.00 | 0.00 | 0.00 | 83 | 1011.6 |
| 20260509045034 | 70 | 267 | 0.0 | 0.0 | 0.00 | 0.00 | 0.00 | 83 | 1011.6 |
| 20260509044034 | 70 | 267 | 1.0 | 2.0 | 0.00 | 0.00 | 0.00 | 83 | 1011.6 |
| 20260509043533 | 70 | 267 | 0.0 | 2.0 | 0.00 | 0.00 | 0.00 | 83 | 1011.7 |
| 20260509043034 | 70 | 267 | 1.0 | 2.0 | 0.00 | 0.00 | 0.00 | 83 | 1011.8 |
| 20260509042533 | 70 | 340 | 0.0 | 2.0 | 0.00 | 0.00 | 0.00 | 83 | 1011.9 |
| 20260509042034 | 70 | 346 | 0.0 | 1.0 | 0.00 | 0.00 | 0.00 | 83 | 1012.0 |
| 20260509041533 | 70 | 346 | 0.0 | 0.0 | 0.00 | 0.00 | 0.00 | 83 | 1012.2 |
| 20260509041033 | 70 | 346 | 0.0 | 0.0 | 0.00 | 0.00 | 0.00 | 83 | 1012.3 |
| 20260509040533 | 70 | 346 | 0.0 | 1.0 | 0.00 | 0.00 | 0.00 | 83 | 1012.3 |
| 20260509040033 | 70 | 5 | 0.0 | 2.0 | 0.00 | 0.00 | 0.00 | 83 | 1012.2 |
| 20260509035533 | 69 | 30 | 1.0 | 1.0 | 0.00 | 0.00 | 0.00 | 83 | 1012.2 |
| 20260509034533 | 69 | 71 | 1.0 | 3.0 | 0.00 | 0.00 | 0.00 | 84 | 1012.1 |
| 20260509034034 | 69 | 275 | 0.0 | 3.0 | 0.00 | 0.00 | 0.00 | 83 | 1011.9 |
| 20260509033532 | 69 | 134 | 1.0 | 3.0 | 0.00 | 0.00 | 0.00 | 83 | 1011.9 |
| 20260509033033 | 69 | 16 | 0.0 | 1.0 | 0.00 | 0.00 | 0.00 | 83 | 1011.8 |
| 20260509032532 | 69 | 16 | 0.0 | 1.0 | 0.00 | 0.00 | 0.00 | 83 | 1011.8 |
| 20260509031534 | 69 | 17 | 0.0 | 0.0 | 0.00 | 0.00 | 0.00 | 82 | 1011.8 |
| 20260509030533 | 69 | 17 | 1.0 | 2.0 | 0.00 | 0.00 | 0.00 | 82 | 1011.6 |
| 20260509030032 | 68 | 17 | 0.0 | 2.0 | 0.00 | 0.00 | 0.00 | 82 | 1011.4 |
| 20260509025533 | 68 | 17 | 0.0 | 1.0 | 0.00 | 0.00 | 0.00 | 81 | 1011.1 |
| 20260509024532 | 68 | 17 | 0.0 | 2.0 | 0.00 | 0.00 | 0.00 | 80 | 1011.0 |
| 20260509023033 | 69 | 17 | 1.0 | 2.0 | 0.00 | 0.00 | 0.00 | 79 | 1010.7 |
| 20260509022033 | 69 | 326 | 0.0 | 0.0 | 0.00 | 0.00 | 0.00 | 78 | 1010.5 |
| 20260509021032 | 69 | 326 | 0.0 | 0.0 | 0.00 | 0.00 | 0.00 | 77 | 1010.6 |
| 20260509015533 | 69 | 327 | 0.0 | 0.0 | 0.00 | 0.00 | 0.00 | 77 | 1010.6 |
| 20260509015033 | 69 | 326 | 0.0 | 0.0 | 0.00 | 0.00 | 0.00 | 78 | 1010.7 |
| 20260509014532 | 69 | 327 | 0.0 | 0.0 | 0.00 | 0.00 | 0.00 | 77 | 1010.6 |
| 20260509013534 | 69 | 326 | 0.0 | 0.0 | 0.00 | 0.00 | 0.00 | 76 | 1010.6 |
| 20260509013032 | 69 | 326 | 0.0 | 0.0 | 0.00 | 0.00 | 0.00 | 75 | 1010.5 |
| 20260509012533 | 69 | 326 | 0.0 | 0.0 | 0.00 | 0.00 | 0.00 | 75 | 1010.5 |
| 20260509012032 | 69 | 326 | 0.0 | 1.0 | 0.00 | 0.00 | 0.00 | 75 | 1010.6 |
| 20260509011534 | 69 | 327 | 0.0 | 1.0 | 0.00 | 0.00 | 0.00 | 74 | 1010.5 |
| 20260509011033 | 69 | 327 | 0.0 | 0.0 | 0.00 | 0.00 | 0.00 | 74 | 1010.4 |
| 20260509010532 | 70 | 327 | 0.0 | 0.0 | 0.00 | 0.00 | 0.00 | 73 | 1010.2 |
| 20260509010033 | 70 | 327 | 0.0 | 0.0 | 0.00 | 0.00 | 0.00 | 72 | 1010.1 |
| 20260509005532 | 71 | 327 | 0.0 | 0.0 | 0.00 | 0.00 | 0.00 | 70 | 1010.1 |
| 20260509005033 | 71 | 327 | 1.0 | 1.0 | 0.00 | 0.00 | 0.00 | 70 | 1009.9 |
| 20260509004533 | 70 | 327 | 1.0 | 2.0 | 0.00 | 0.00 | 0.00 | 71 | 1009.8 |
| 20260509004032 | 71 | 348 | 0.0 | 1.0 | 0.00 | 0.00 | 0.00 | 70 | 1009.8 |
| 20260509003534 | 71 | 348 | 0.0 | 2.0 | 0.00 | 0.00 | 0.00 | 70 | 1009.6 |
| 20260509003033 | 71 | 313 | 0.0 | 3.0 | 0.00 | 0.00 | 0.00 | 69 | 1009.4 |
| 20260509002532 | 71 | 303 | 1.0 | 3.0 | 0.00 | 0.00 | 0.00 | 69 | 1009.2 |
| 20260509001533 | 71 | 281 | 2.0 | 3.0 | 0.00 | 0.00 | 0.00 | 69 | 1009.1 |
| 20260509001032 | 72 | 260 | 1.0 | 3.0 | 0.00 | 0.00 | 0.00 | 70 | 1009.3 |
| 20260509000532 | 72 | 265 | 2.0 | 3.0 | 0.00 | 0.00 | 0.00 | 69 | 1010.5 |
| 20260508235533 | 72 | 294 | 2.0 | 3.0 | 0.00 | 0.00 | 0.00 | 69 | 1010.4 |
| 20260508235034 | 73 | 337 | 2.0 | 3.0 | 0.00 | 0.00 | 0.00 | 67 | 1010.4 |
| 20260508234534 | 73 | 46 | 1.0 | 6.0 | 0.00 | 0.00 | 0.00 | 66 | 1010.1 |
| 20260508234032 | 73 | 286 | 1.0 | 3.0 | 0.00 | 0.00 | 0.00 | 68 | 1010.3 |
| 20260508233533 | 73 | 317 | 0.0 | 3.0 | 0.00 | 0.00 | 0.00 | 68 | 1010.5 |
| 20260508233032 | 74 | 338 | 0.0 | 2.0 | 0.00 | 0.00 | 0.00 | 67 | 1010.9 |
| 20260508232532 | 74 | 339 | 0.0 | 2.0 | 0.00 | 0.00 | 0.00 | 66 | 1011.0 |
| 20260508232033 | 73 | 333 | 1.0 | 2.0 | 0.00 | 0.00 | 0.00 | 66 | 1010.9 |
| 20260508231533 | 73 | 302 | 0.0 | 1.0 | 0.00 | 0.00 | 0.00 | 66 | 1011.1 |
| 20260508231034 | 73 | 302 | 0.0 | 1.0 | 0.00 | 0.00 | 0.00 | 66 | 1011.1 |
| 20260508230533 | 73 | 304 | 0.0 | 1.0 | 0.00 | 0.00 | 0.00 | 65 | 1011.2 |
| 20260508230032 | 73 | 304 | 0.0 | 2.0 | 0.00 | 0.00 | 0.00 | 64 | 1011.3 |
| 20260508225533 | 74 | 311 | 0.0 | 1.0 | 0.00 | 0.00 | 0.00 | 64 | 1011.1 |
| 20260508225033 | 75 | 311 | 0.0 | 3.0 | 0.00 | 0.00 | 0.00 | 60 | 1011.0 |
| 20260508224535 | 75 | 68 | 1.0 | 3.0 | 0.00 | 0.00 | 0.00 | 63 | 1010.9 |